Victorville, CA

8:23 PM PST on November 21, 2017 (GMT -0800)
Southern California Logistics

Weather History for KVCV - October, 2013

Change the Weather History Date:

Saturday, October 26, 2013

  Actual Average (KSBD) Record (KSBD)
Temperature  
Mean Temperature 64 °F -  
Max Temperature 82 °F 78 °F 95 °F (2017)
Min Temperature 46 °F 49 °F 46 °F (2010)
Degree Days  
Heating Degree Days 1    
Growing Degree Days 14 (Base 50)    
Moisture  
Dew Point 20 °F    
Average Humidity 19    
Maximum Humidity 32    
Minimum Humidity 10    
Precipitation  
Precipitation 0.00 in - - ()
Sea Level Pressure  
Sea Level Pressure 30.13 in    
Wind  
Wind Speed 7 mph (SE)    
Max Wind Speed 15 mph    
Max Gust Speed 21 mph    
Visibility 10 miles    
Events      
Averages and records for this station are not official NWS values.
T = Trace of Precipitation, MM = Missing Value Source: NWS Daily Summary

Daily Weather History Graph

Daily Weather History Graph

Search for Another Location

Airport or City:

Trip Planner

Search our weather history database for the weather conditions in past years. The results will help you decide how hot, cold, wet, or windy it might be!

Date:

Astronomy

Oct. 26, 2013 Rise Set
Actual Time 7:04 AM PDT 6:01 PM PDT
Civil Twilight 6:38 AM PDT 6:27 PM PDT
Nautical Twilight 6:09 AM PDT 6:56 PM PDT
Astronomical Twilight 5:40 AM PDT 7:26 PM PDT
Moon No Moon Rise 1:21 PM PDT (10/26)
Length of Visible Light 11h 48m
Length of Day
10h 56m
Waning Gibbous, 52% of the Moon is Illuminated
Oct 26
Waning Gibbous
Oct 26
Last Quarter
Nov 3
New
Nov 9
First Quarter
Nov 17
Full

Hourly Weather History & Observations

Time (PDT) Temp. Windchill Dew Point Humidity Pressure Visibility Wind Dir Wind Speed Gust Speed Precip Events Conditions
12:15 AM 57.2 °F - 17.6 °F 21% 30.15 in 10.0 mi South 8.1 mph - N/A   Unknown
12:35 AM 55.4 °F - 17.6 °F 23% 30.14 in 10.0 mi South 6.9 mph - N/A   Unknown
12:55 AM 51.8 °F - 15.8 °F 24% 30.15 in 10.0 mi South 6.9 mph - N/A   Unknown
1:15 AM 53.6 °F - 17.6 °F 24% 30.15 in 10.0 mi South 6.9 mph - N/A   Unknown
1:35 AM 51.8 °F - 17.6 °F 26% 30.15 in 10.0 mi South 5.8 mph - N/A   Unknown
1:55 AM 51.8 °F - 17.6 °F 26% 30.16 in 10.0 mi South 6.9 mph - N/A   Unknown
2:15 AM 51.8 °F - 17.6 °F 26% 30.16 in 10.0 mi South 6.9 mph - N/A   Unknown
2:35 AM 51.8 °F - 17.6 °F 26% 30.16 in 10.0 mi South 8.1 mph - N/A   Unknown
2:55 AM 55.4 °F - 19.4 °F 25% 30.15 in 10.0 mi South 9.2 mph - N/A   Unknown
3:15 AM 51.8 °F - 17.6 °F 26% 30.15 in 10.0 mi South 5.8 mph - N/A   Unknown
3:35 AM 48.2 °F - 15.8 °F 27% 30.15 in 10.0 mi South 6.9 mph - N/A   Unknown
3:55 AM 51.8 °F - 17.6 °F 26% 30.15 in 10.0 mi South 8.1 mph - N/A   Unknown
4:15 AM 51.8 °F - 19.4 °F 28% 30.15 in 10.0 mi South 4.6 mph - N/A   Unknown
4:35 AM 50.0 °F - 19.4 °F 30% 30.15 in 10.0 mi South 5.8 mph - N/A   Unknown
4:55 AM 50.0 °F - 19.4 °F 30% 30.15 in 10.0 mi South 9.2 mph - N/A   Unknown
5:15 AM 50.0 °F - 19.4 °F 30% 30.15 in 10.0 mi South 8.1 mph - N/A   Unknown
5:35 AM 48.2 °F - 19.4 °F 32% 30.16 in 10.0 mi South 8.1 mph - N/A   Unknown
5:55 AM 48.2 °F - 17.6 °F 30% 30.16 in 10.0 mi South 4.6 mph - N/A   Unknown
6:15 AM 46.4 °F 43.5 °F 17.6 °F 32% 30.16 in 10.0 mi South 5.8 mph - N/A   Unknown
6:35 AM 46.4 °F 42.9 °F 17.6 °F 32% 30.17 in 10.0 mi South 6.9 mph - N/A   Unknown
6:55 AM 46.4 °F 42.4 °F 17.6 °F 32% 30.17 in 10.0 mi South 8.1 mph - N/A   Unknown
7:15 AM 48.2 °F - 17.6 °F 30% 30.17 in 10.0 mi South 6.9 mph - N/A   Unknown
7:35 AM 48.2 °F - 17.6 °F 30% 30.18 in 10.0 mi South 6.9 mph - N/A   Unknown
7:55 AM 51.8 °F - 19.4 °F 28% 30.18 in 10.0 mi South 8.1 mph - N/A   Unknown
8:15 AM 53.6 °F - 19.4 °F 26% 30.19 in 10.0 mi South 5.8 mph - N/A   Unknown
8:35 AM 59.0 °F - 21.2 °F 23% 30.20 in 10.0 mi SSE 5.8 mph - N/A   Unknown
8:55 AM 62.6 °F - 21.2 °F 20% 30.21 in 10.0 mi SSE 5.8 mph - N/A   Unknown
9:15 AM 64.4 °F - 21.2 °F 19% 30.21 in 10.0 mi South 5.8 mph - N/A   Unknown
9:35 AM 66.2 °F - 19.4 °F 17% 30.21 in 10.0 mi South 4.6 mph - N/A   Unknown
9:55 AM 68.0 °F - 19.4 °F 16% 30.20 in 10.0 mi SSE 3.5 mph - N/A   Unknown
10:15 AM 69.8 °F - 19.4 °F 15% 30.20 in 10.0 mi Calm Calm - N/A   Unknown
10:35 AM 71.6 °F - 19.4 °F 14% 30.20 in 10.0 mi SE 3.5 mph - N/A   Unknown
10:55 AM 73.4 °F - 19.4 °F 13% 30.19 in 10.0 mi Calm Calm - N/A   Unknown
11:15 AM 75.2 °F - 19.4 °F 12% 30.19 in 10.0 mi Calm Calm - N/A   Unknown
11:35 AM 77.0 °F - 19.4 °F 12% 30.19 in 10.0 mi North 4.6 mph - N/A   Unknown
11:55 AM 78.8 °F - 21.2 °F 12% 30.18 in 10.0 mi North 4.6 mph - N/A   Unknown
12:15 PM 78.8 °F - 19.4 °F 11% 30.17 in 2.5 mi North 8.1 mph - N/A   Haze
12:35 PM 80.6 °F - 19.4 °F 10% 30.16 in 10.0 mi NNE 10.4 mph - N/A   Unknown
12:55 PM 80.6 °F - 19.4 °F 10% 30.15 in 10.0 mi NNE 11.5 mph - N/A   Unknown
1:15 PM 80.6 °F - 21.2 °F 11% 30.13 in 10.0 mi North 12.7 mph - N/A   Unknown
1:35 PM 82.4 °F - 21.2 °F 10% 30.12 in 10.0 mi NNE 13.8 mph - N/A   Unknown
1:55 PM 82.4 °F - 19.4 °F 10% 30.11 in 10.0 mi North 11.5 mph 20.7 mph N/A   Unknown
2:15 PM 82.4 °F - 21.2 °F 10% 30.10 in 10.0 mi NNE 13.8 mph 18.4 mph N/A   Unknown
2:35 PM 82.4 °F - 21.2 °F 10% 30.10 in 10.0 mi North 12.7 mph 17.3 mph N/A   Unknown
2:55 PM 82.4 °F - 21.2 °F 10% 30.10 in 10.0 mi NNE 13.8 mph - N/A   Unknown
3:15 PM 82.4 °F - 21.2 °F 10% 30.10 in 10.0 mi NNE 10.4 mph 18.4 mph N/A   Unknown
3:35 PM 82.4 °F - 21.2 °F 10% 30.09 in 10.0 mi NNE 15.0 mph - N/A   Unknown
3:55 PM 80.6 °F - 23.0 °F 12% 30.09 in 10.0 mi North 12.7 mph - N/A   Unknown
4:15 PM 80.6 °F - 21.2 °F 11% 30.08 in 10.0 mi ENE 8.1 mph 17.3 mph N/A   Unknown
4:35 PM 80.6 °F - 21.2 °F 11% 30.08 in 10.0 mi SE 9.2 mph - N/A   Unknown
4:55 PM 80.6 °F - 21.2 °F 11% 30.08 in 10.0 mi ESE 6.9 mph - N/A   Unknown
5:15 PM 78.8 °F - 21.2 °F 12% 30.08 in 10.0 mi ESE 6.9 mph - N/A   Unknown
5:35 PM 78.8 °F - 21.2 °F 12% 30.08 in 10.0 mi ESE 6.9 mph - N/A   Unknown
5:55 PM 78.8 °F - 21.2 °F 12% 30.08 in 10.0 mi East 3.5 mph - N/A   Unknown
6:15 PM 75.2 °F - 21.2 °F 13% 30.08 in 10.0 mi NE 5.8 mph - N/A   Unknown
6:35 PM 75.2 °F - 21.2 °F 13% 30.08 in 10.0 mi NE 4.6 mph - N/A   Unknown
6:55 PM 73.4 °F - 21.2 °F 14% 30.08 in 10.0 mi NNE 5.8 mph - N/A   Unknown
7:15 PM 73.4 °F - 21.2 °F 14% 30.08 in 10.0 mi NE 3.5 mph - N/A   Unknown
7:35 PM 73.4 °F - 21.2 °F 14% 30.08 in 10.0 mi NE 4.6 mph - N/A   Unknown
7:55 PM 71.6 °F - 21.2 °F 15% 30.08 in 10.0 mi NNE 4.6 mph - N/A   Unknown
8:15 PM 71.6 °F - 21.2 °F 15% 30.08 in 10.0 mi NE 3.5 mph - N/A   Unknown
8:35 PM 64.4 °F - 21.2 °F 19% 30.09 in 10.0 mi West 3.5 mph - N/A   Unknown
8:55 PM 66.2 °F - 21.2 °F 18% 30.09 in 10.0 mi Calm Calm - N/A   Unknown
9:15 PM 64.4 °F - 21.2 °F 19% 30.09 in 10.0 mi South 5.8 mph - N/A   Unknown
9:35 PM 60.8 °F - 21.2 °F 22% 30.10 in 10.0 mi South 5.8 mph - N/A   Unknown
9:55 PM 62.6 °F - 21.2 °F 20% 30.10 in 10.0 mi SSE 8.1 mph - N/A   Unknown
10:15 PM 59.0 °F - 21.2 °F 23% 30.09 in 10.0 mi SSE 8.1 mph - N/A   Unknown
10:35 PM 60.8 °F - 21.2 °F 22% 30.09 in 10.0 mi South 8.1 mph - N/A   Unknown
10:55 PM 60.8 °F - 23.0 °F 23% 30.09 in 10.0 mi SSE 9.2 mph - N/A   Unknown
11:15 PM 59.0 °F - 23.0 °F 25% 30.08 in 10.0 mi SSW 6.9 mph - N/A   Unknown
11:35 PM 59.0 °F - 23.0 °F 25% 30.08 in 10.0 mi WSW 3.5 mph - N/A   Unknown
11:55 PM 60.8 °F - 24.8 °F 25% 30.08 in 10.0 mi SSW 4.6 mph - N/A   Unknown